Weather History for False Pass, AK

Change the Weather History Date:

Wednesday, November 14, 2012

  Actual Average (PACD) Record (PACD)
Temperature  
Mean Temperature 41 °F 35 °F  
Max Temperature 41 °F 39 °F 56 °F (1979)
Min Temperature 37 °F 30 °F 15 °F (1977)
Degree Days  
Heating Degree Days 24 30  
Month to date heating degree days 410  
Since 1 July heating degree days 2523  
Cooling Degree Days 0    
Month to date cooling degree days  
Year to date cooling degree days  
Moisture  
Dew Point 35 °F    
Average Humidity 80    
Maximum Humidity 93    
Minimum Humidity 63    
Precipitation  
Precipitation 0.73 in 0.16 in 1.04 in (1961)
Month to date precipitation 2.22  
Year to date precipitation 34.45  
Snow  
Snow 0.00 in 0.40 in 21.40 in (1983)
Month to date snowfall 3.9  
Since 1 July snowfall 6.3  
Since 1 September snowfall 6.3  
Snow Depth -    
Sea Level Pressure  
Sea Level Pressure 29.50 in    
Wind  
Wind Speed 16 mph (SW)    
Max Wind Speed 33 mph    
Max Gust Speed 50 mph    
Visibility 7 miles    
Events Rain    
T = Trace of Precipitation, MM = Missing Value Source: NWS Daily Summary

Daily Weather History Graph

Daily Weather History Graph

Search for Another Location

Airport:

Trip Planner

Search our weather history database for the weather conditions in past years. The results will help you decide how hot, cold, wet, or windy it might be!

Date:

Astronomy

Nov. 14, 2012 Rise Set
Actual Time 8:24 AM HAST 4:51 PM HAST
Civil Twilight 7:43 AM HAST 5:31 PM HAST
Nautical Twilight 6:59 AM HAST 6:16 PM HAST
Astronomical Twilight 6:16 AM HAST 6:58 PM HAST
Moon 9:39 AM HAST (11/14) 5:39 PM HAST (11/14)
Length of Visible Light 9h 48m
Length of Day
8h 26m
New Moon, 2% of the Moon is Illuminated
Nov 14
New Moon
Nov 20
First Quarter
Nov 28
Full
Dec 6
Last Quarter
Dec 12
New

Hourly Weather History & Observations

Time (HAST) Temp. Windchill Dew Point Humidity Pressure Visibility Wind Dir Wind Speed Gust Speed Precip Events Conditions
12:01 AM 44.1 °F 35.9 °F 37.0 °F 76% 29.52 in 9.0 mi South 19.6 mph 28.8 mph 0.00 in   Overcast
12:42 AM 44.6 °F 36.4 °F 35.6 °F 71% 29.24 in 10.0 mi SSE 20.7 mph 33.4 mph 0.00 in   Mostly Cloudy
1:01 AM 43.0 °F 35.7 °F 36.0 °F 76% 29.52 in 10.0 mi South 15.0 mph 25.3 mph 0.00 in Rain Light Rain
1:23 AM 44.6 °F 37.4 °F 35.6 °F 71% 29.25 in 10.0 mi SSE 16.1 mph 24.2 mph 0.00 in Rain Light Rain
2:01 AM 42.1 °F 34.9 °F 37.0 °F 82% 29.52 in 6.0 mi South 13.8 mph 26.5 mph 0.01 in Rain Light Rain
3:01 AM 42.1 °F 37.7 °F 35.1 °F 76% 29.54 in 10.0 mi SSE 6.9 mph - 0.00 in   Mostly Cloudy
4:01 AM 39.0 °F 36.8 °F 35.1 °F 86% 29.55 in 10.0 mi West 3.5 mph - N/A   Mostly Cloudy
5:01 AM 41.0 °F 38.0 °F 34.0 °F 76% 29.56 in 10.0 mi SE 4.6 mph - 0.00 in   Mostly Cloudy
6:01 AM 39.9 °F 35.1 °F 35.1 °F 83% 29.57 in 10.0 mi ENE 6.9 mph - 0.00 in   Mostly Cloudy
7:01 AM 39.0 °F 34.0 °F 36.0 °F 89% 29.60 in 10.0 mi SSE 6.9 mph 18.4 mph 0.01 in Rain Light Rain
7:32 AM 39.2 °F - 35.6 °F 87% 29.31 in 10.0 mi Calm Calm - 0.03 in Rain Light Rain
8:01 AM 37.9 °F 34.4 °F 36.0 °F 93% 29.59 in 10.0 mi East 4.6 mph - 0.04 in Rain Light Rain
8:23 AM 37.4 °F 33.8 °F 35.6 °F 93% 29.32 in 10.0 mi SW 4.6 mph - 0.00 in   Mostly Cloudy
9:01 AM 39.0 °F 33.4 °F 36.0 °F 89% 29.61 in 9.0 mi South 8.1 mph - 0.01 in Rain Light Rain
10:01 AM 39.0 °F 35.7 °F 36.0 °F 89% 29.62 in 10.0 mi East 4.6 mph - 0.01 in Rain Light Rain
11:01 AM 43.0 °F 39.5 °F 34.0 °F 71% 29.60 in 10.0 mi Variable 5.8 mph - 0.00 in   Scattered Clouds
12:01 PM 43.0 °F 37.2 °F 33.1 °F 68% 29.61 in 10.0 mi SE 10.4 mph - N/A   Overcast
1:01 PM 45.0 °F 41.8 °F 33.1 °F 63% 29.60 in 10.0 mi Variable 5.8 mph - 0.00 in Rain Light Rain
2:01 PM 44.1 °F 35.9 °F 32.0 °F 63% 29.59 in 10.0 mi SW 19.6 mph 32.2 mph 0.00 in   Mostly Cloudy
2:32 PM 42.8 °F 33.5 °F 33.8 °F 70% 29.31 in 9.0 mi WSW 23.0 mph 34.5 mph 0.00 in Rain Light Rain
3:01 PM 42.1 °F 33.1 °F 34.0 °F 73% 29.60 in 10.0 mi SW 20.7 mph 32.2 mph 0.00 in Rain Light Rain
4:01 PM 41.0 °F 30.0 °F 35.1 °F 79% 29.59 in 3.0 mi WSW 28.8 mph 36.8 mph 0.06 in Rain Light Rain
4:20 PM 41.0 °F 32.5 °F 35.6 °F 81% 29.31 in 7.0 mi WSW 17.3 mph 38.0 mph 0.03 in Rain Light Rain
4:41 PM 42.8 °F 33.3 °F 35.6 °F 76% 29.30 in 8.0 mi SW 24.2 mph 39.1 mph 0.04 in Rain Light Rain
5:01 PM 41.0 °F 30.5 °F 35.1 °F 79% 29.59 in 3.0 mi WSW 26.5 mph 46.0 mph 0.07 in Rain Light Rain
6:01 PM 41.0 °F 30.5 °F 35.1 °F 79% 29.60 in 5.0 mi WSW 26.5 mph 40.3 mph 0.07 in Rain Light Rain
6:44 PM 41.0 °F 30.7 °F 35.6 °F 81% 29.34 in 2.5 mi WSW 25.3 mph 46.0 mph 0.09 in Rain Rain
6:51 PM 41.0 °F 30.7 °F 35.6 °F 81% 29.34 in 3.0 mi WSW 25.3 mph 41.4 mph 0.12 in Rain Rain
7:01 PM 41.0 °F 33.9 °F 36.0 °F 82% 29.63 in 3.0 mi WSW 12.7 mph 32.2 mph 0.15 in Rain Heavy Rain
7:36 PM 41.0 °F 34.3 °F 35.6 °F 81% 29.35 in 3.0 mi WSW 11.5 mph 41.4 mph 0.07 in Rain Rain
7:58 PM 41.0 °F 32.5 °F 35.6 °F 81% 29.35 in 2.0 mi WSW 17.3 mph 32.2 mph 0.12 in Rain Rain
8:01 PM 41.0 °F 31.6 °F 37.0 °F 86% 29.63 in 2.0 mi SW 20.7 mph 32.2 mph 0.13 in Rain Light Rain
8:25 PM 42.8 °F 32.7 °F 35.6 °F 76% 29.34 in 3.0 mi West 27.6 mph 44.9 mph 0.04 in Rain Light Rain
9:01 PM 41.0 °F 30.2 °F 36.0 °F 82% 29.66 in 3.0 mi West 27.6 mph 43.7 mph 0.09 in Rain Light Rain
9:46 PM 41.0 °F 30.2 °F 35.6 °F 81% 29.42 in 2.0 mi West 27.6 mph 47.2 mph 0.07 in Rain Rain
10:01 PM 41.0 °F 32.2 °F 36.0 °F 82% 29.71 in 2.5 mi West 18.4 mph 49.5 mph 0.08 in Rain Light Rain
11:01 PM 39.2 °F 26.8 °F 37.4 °F 93% 29.49 in 2.0 mi West 33.4 mph 49.5 mph 0.05 in Rain Light Rain
11:08 PM 39.2 °F 27.4 °F 37.4 °F 93% 29.51 in 3.0 mi West 29.9 mph 46.0 mph 0.05 in Rain Light Rain
11:49 PM 41.0 °F 30.2 °F 35.6 °F 81% 29.57 in 3.0 mi WNW 27.6 mph 40.3 mph 0.06 in Rain Light Rain